TimeEST,TemperatureF,Dew PointF,Humidity,Sea Level PressureIn,VisibilityMPH,Wind Direction,Wind SpeedMPH,Gust SpeedMPH,PrecipitationIn,Events,Conditions,WindDirDegrees,DateUTC
12:15 AM,28.4,26.6,93,30.22,10.0,Calm,Calm,-,N/A,,Scattered Clouds,0,2013-01-06 05:15:00
12:35 AM,28.4,26.6,93,30.21,10.0,Calm,Calm,-,N/A,,Mostly Cloudy,0,2013-01-06 05:35:00
12:55 AM,28.4,26.6,93,30.21,10.0,Calm,Calm,-,N/A,,Overcast,0,2013-01-06 05:55:00
1:15 AM,28.4,28.4,100,30.21,10.0,Calm,Calm,-,N/A,,Overcast,0,2013-01-06 06:15:00
1:35 AM,30.2,26.6,86,30.22,10.0,Calm,Calm,-,N/A,,Overcast,0,2013-01-06 06:35:00
1:55 AM,30.2,26.6,86,30.20,10.0,South,3.5,-,N/A,,Overcast,180,2013-01-06 06:55:00
2:15 AM,30.2,26.6,86,30.20,10.0,Calm,Calm,-,N/A,,Overcast,0,2013-01-06 07:15:00
2:35 AM,30.2,26.6,86,30.19,10.0,Calm,Calm,-,N/A,,Overcast,0,2013-01-06 07:35:00
2:55 AM,30.2,26.6,86,30.18,10.0,Calm,Calm,-,N/A,,Overcast,0,2013-01-06 07:55:00
3:15 AM,30.2,26.6,86,30.18,10.0,Calm,Calm,-,N/A,,Overcast,0,2013-01-06 08:15:00
3:35 AM,30.2,26.6,86,30.17,10.0,Calm,Calm,-,N/A,,Overcast,0,2013-01-06 08:35:00
3:55 AM,30.2,24.8,80,30.16,10.0,Calm,Calm,-,N/A,,Overcast,0,2013-01-06 08:55:00
4:15 AM,30.2,26.6,86,30.15,10.0,Calm,Calm,-,N/A,,Overcast,0,2013-01-06 09:15:00
4:35 AM,30.2,26.6,86,30.13,10.0,Calm,Calm,-,N/A,,Overcast,0,2013-01-06 09:35:00
4:55 AM,30.2,26.6,86,30.13,10.0,Calm,Calm,-,N/A,,Overcast,0,2013-01-06 09:55:00
5:15 AM,32.0,28.4,87,30.12,10.0,Calm,Calm,-,N/A,,Overcast,0,2013-01-06 10:15:00
5:35 AM,32.0,28.4,87,30.12,7.0,Calm,Calm,-,N/A,,Overcast,0,2013-01-06 10:35:00
6:45 AM,32.0,28.4,87,30.12,10.0,WSW,6.9,-,N/A,,Overcast,240,2013-01-06 11:45:00
7:15 AM,32.0,21.2,64,30.12,3.0,West,4.6,-,N/A,,Overcast,260,2013-01-06 12:15:00
7:45 AM,32.0,30.2,93,30.12,2.5,WSW,6.9,-,N/A,,Overcast,240,2013-01-06 12:45:00
8:45 AM,33.8,30.2,87,30.11,2.5,SSW,4.6,-,N/A,,Overcast,210,2013-01-06 13:45:00
9:15 AM,33.8,30.2,87,30.11,3.0,SW,3.5,-,N/A,,Overcast,220,2013-01-06 14:15:00
9:45 AM,35.6,30.2,81,30.11,4.0,SW,5.8,-,N/A,,Mostly Cloudy,220,2013-01-06 14:45:00
10:45 AM,37.4,30.2,75,30.09,7.0,WSW,5.8,-,N/A,,Scattered Clouds,250,2013-01-06 15:45:00
11:45 AM,42.8,28.4,57,30.04,10.0,NW,9.2,-,N/A,,Partly Cloudy,320,2013-01-06 16:45:00
12:45 PM,44.6,26.6,49,30.01,10.0,West,12.7,18.4,N/A,,Clear,280,2013-01-06 17:45:00
1:45 PM,44.6,26.6,49,29.99,10.0,West,11.5,-,N/A,,Clear,280,2013-01-06 18:45:00
2:55 PM,46.4,24.8,43,29.98,10.0,WNW,10.4,16.1,N/A,,Scattered Clouds,290,2013-01-06 19:55:00
3:45 PM,44.6,24.8,46,29.98,10.0,WNW,12.7,19.6,N/A,,Scattered Clouds,290,2013-01-06 20:45:00
4:45 PM,42.8,24.8,49,29.99,10.0,WNW,12.7,-,N/A,,Scattered Clouds,290,2013-01-06 21:45:00
5:45 PM,42.8,24.8,49,30.00,10.0,West,10.4,-,N/A,,Mostly Cloudy,270,2013-01-06 22:45:00
6:45 PM,41.0,24.8,53,30.01,10.0,West,8.1,-,N/A,,Mostly Cloudy,270,2013-01-06 23:45:00
7:45 PM,41.0,24.8,53,30.02,10.0,West,8.1,-,N/A,,Overcast,270,2013-01-07 00:45:00
8:45 PM,41.0,26.6,57,30.02,10.0,West,8.1,-,N/A,,Overcast,260,2013-01-07 01:45:00
9:45 PM,41.0,26.6,57,30.03,10.0,West,8.1,-,N/A,,Mostly Cloudy,270,2013-01-07 02:45:00
9:55 PM,37.4,28.4,70,30.03,10.0,West,4.6,-,N/A,,Scattered Clouds,270,2013-01-07 02:55:00
10:15 PM,39.2,28.4,65,30.03,10.0,West,6.9,-,N/A,,Scattered Clouds,270,2013-01-07 03:15:00
10:35 PM,39.2,28.4,65,30.03,10.0,West,5.8,-,N/A,,Mostly Cloudy,270,2013-01-07 03:35:00
10:55 PM,39.2,28.4,65,30.03,10.0,West,6.9,-,N/A,,Scattered Clouds,270,2013-01-07 03:55:00
11:15 PM,37.4,28.4,70,30.04,10.0,West,5.8,-,N/A,,Scattered Clouds,270,2013-01-07 04:15:00
11:35 PM,37.4,28.4,70,30.05,10.0,West,4.6,-,N/A,,Clear,270,2013-01-07 04:35:00
11:55 PM,37.4,28.4,70,30.05,10.0,West,4.6,-,N/A,,Clear,260,2013-01-07 04:55:00